Toronto Pearson, Ontario

10:07 AM EDT on August 27, 2016 (GMT -0400)
Toronto-Pearson International

Weather History for CYYZ - October, 2013

Change the Weather History Date:

Sunday, October 20, 2013

  Actual Average Record
Temperature  
Mean Temperature 46 °F -  
Max Temperature 56 °F 49 °F 73 °F (2000)
Min Temperature 36 °F 33 °F 33 °F (2005)
Degree Days  
Heating Degree Days 19    
Moisture  
Dew Point 36 °F    
Average Humidity 70    
Maximum Humidity 93    
Minimum Humidity 44    
Precipitation  
Precipitation 0.00 in 0.09 in - ()
Sea Level Pressure  
Sea Level Pressure 29.87 in    
Wind  
Wind Speed 8 mph ()    
Max Wind Speed 22 mph    
Max Gust Speed 29 mph    
Visibility 15.0 miles    
Events      
Averages and records for this station are not official NWS values.
T = Trace of Precipitation, MM = Missing Value Source: Averaged Metar Reports

Daily Weather History Graph

Daily Weather History Graph

Search for Another Location

Airport or City:

Trip Planner

Search our weather history database for the weather conditions in past years. The results will help you decide how hot, cold, wet, or windy it might be!

Date:

Astronomy

Oct. 20, 2013 Rise Set
Actual Time 7:39 AM EDT 6:26 PM EDT
Civil Twilight 7:10 AM EDT 6:55 PM EDT
Nautical Twilight 6:36 AM EDT 7:29 PM EDT
Astronomical Twilight 6:03 AM EDT 8:02 PM EDT
Moon 7:30 PM EDT (10/20) 9:18 AM EDT (10/20)
Length of Visible Light 11h 45m
Length of Day
10h 47m
Full, 97% of the Moon is Illuminated
Oct 20
Full
Oct 26
Last Quarter
Nov 3
New
Nov 10
First Quarter
Nov 17
Full

Hourly Weather History & Observations

Time (EDT) Temp. Windchill Dew Point Humidity Pressure Visibility Wind Dir Wind Speed Gust Speed Precip Events Conditions
12:00 AM 41.0 °F 33.5 °F 37.4 °F 87% 29.76 in 15.0 mi WSW 13.8 mph 19.6 mph N/A   Mostly Cloudy
1:00 AM 41.0 °F 33.5 °F 37.4 °F 87% 29.78 in 15.0 mi West 13.8 mph 23.0 mph N/A   Partly Cloudy
2:00 AM 41 °F - 37 °F 80% 29.80 in 15 mi West 9.2 mph - -   Scattered Clouds
2:00 AM 41.0 °F 35.8 °F 37.4 °F 87% 29.79 in 15.0 mi West 8.1 mph - N/A   Partly Cloudy
3:00 AM 39.2 °F 37.0 °F 37.4 °F 93% 29.80 in 15.0 mi WNW 3.5 mph - N/A   Partly Cloudy
4:00 AM 39.2 °F 35.0 °F 35.6 °F 87% 29.80 in 15.0 mi WSW 5.8 mph - N/A   Clear
5:00 AM 39.2 °F 35.9 °F 35.6 °F 87% 29.82 in 15.0 mi West 4.6 mph - N/A   Partly Cloudy
6:00 AM 37.4 °F 34.9 °F 35.6 °F 93% 29.82 in 15.0 mi West 3.5 mph - N/A   Clear
7:00 AM 37.4 °F 32.1 °F 35.6 °F 93% 29.84 in 15.0 mi WSW 6.9 mph - N/A   Partly Cloudy
8:00 AM 38 °F - 35 °F 87% 29.85 in 15 mi WSW 4.6 mph - -   Scattered Clouds
8:00 AM 37.4 °F 33.8 °F 35.6 °F 93% 29.85 in 15.0 mi WSW 4.6 mph - N/A   Partly Cloudy
9:00 AM 41.0 °F 38.0 °F 37.4 °F 87% 29.88 in 15.0 mi West 4.6 mph - N/A   Partly Cloudy
10:00 AM 44.6 °F 41.4 °F 39.2 °F 81% 29.89 in 15.0 mi WSW 5.8 mph - N/A   Partly Cloudy
11:00 AM 50.0 °F - 41.0 °F 71% 29.90 in 15.0 mi WSW 8.1 mph - N/A   Partly Cloudy
12:00 PM 51.8 °F - 41.0 °F 67% 29.91 in 15.0 mi West 13.8 mph - N/A   Mostly Cloudy
1:00 PM 53.6 °F - 42.8 °F 67% 29.89 in 15.0 mi WSW 10.4 mph 18.4 mph N/A   Scattered Clouds
2:00 PM 54 °F - 39 °F 45% 29.88 in 15 mi West 10.4 mph - -   Partly Cloudy
2:00 PM 53.6 °F - 39.2 °F 58% 29.88 in 15.0 mi West 9.2 mph - N/A   Mostly Cloudy
3:00 PM 55.4 °F - 33.8 °F 44% 29.88 in 15.0 mi WSW 19.6 mph 25.3 mph N/A   Mostly Cloudy
4:00 PM 55.4 °F - 33.8 °F 44% 29.90 in 15.0 mi WSW 21.9 mph 28.8 mph N/A   Mostly Cloudy
5:00 PM 53.6 °F - 32.0 °F 44% 29.91 in 15.0 mi West 16.1 mph 25.3 mph N/A   Partly Cloudy
6:00 PM 51.8 °F - 33.8 °F 50% 29.93 in 15.0 mi West 11.5 mph - N/A   Partly Cloudy
7:00 PM 48.2 °F - 33.8 °F 58% 29.94 in 15.0 mi SW 5.8 mph - N/A   Scattered Clouds
8:00 PM 48 °F - 33 °F 44% 29.96 in 15 mi WSW 4.6 mph - -   Scattered Clouds
8:00 PM 48.2 °F - 33.8 °F 58% 29.96 in 15.0 mi SW 5.8 mph - N/A   Partly Cloudy
9:00 PM 46.4 °F 44.3 °F 33.8 °F 62% 29.96 in 15.0 mi SW 4.6 mph - N/A   Partly Cloudy
10:00 PM 48.2 °F - 33.8 °F 58% 29.95 in 15.0 mi SSW 3.5 mph - N/A   Partly Cloudy
11:00 PM 48.2 °F - 33.8 °F 58% 29.95 in 15.0 mi Variable 2.3 mph - N/A   Mostly Cloudy